Airfield :
LOGIN :

Register | Disclaimer

   EN    FR    IT 

 










Legend :    VFR   Marginal VFR   IFR   Intensive IFR   Very Intensive IFR
Visi :
Ceiling :
>= 8 km
>= 3000ft
5 to 8 km
1000 to 3000 ft
1500m to 5 km
500 to 1000 ft
800 to 1500m
200 to 500 ft
< 800m
< 200 ft
Symbols :   Thunderstorms  Fog  Heavy snow  Heavy precipitations  Wind > 20 kt
SIGMETs :     Misc.  Thunderstorms  Icing  Turbulence  Mountain Waves  Volcanic Ashes







- Airport Elevation : 1959 ft
- IATA code : HOQ


EDQM - Hof Plauen

CURRENT METAR :
  • 120720Z 36006KT 310V050 9999 -SN SCT009 BKN011 OVC014 M01/M01 Q1020

EXPIRED METARs :
  • 120650Z 36004KT 310V050 9999 -SN SCT005 OVC013 M01/M01 Q1020
  • 120620Z 01006KT 310V050 2400 -SN BR BKN006 OVC009 M01/M01 Q1020
  • 120550Z 01009KT 9999 BKN006 BKN008 OVC012 M01/M01 Q1019
  • 120520Z 36006KT 310V030 7000 BKN004 OVC015 M01/M01 Q1019

TAF TAF EDQM
Valid from the 12 at 07:00 until the 12 at 15:00 UTC


120630Z 1207/1215 35006KT 8000 BKN009
TEMPO 1207/1215 2000 -SN BR BKN004
No reported NOTAMs for that airfield.



MET'MAP, your aeronautical weather chart ! - Copyright ORBIFLY December 2007 - Disclaimer

ORBIFLY MET'MAP TEAM :

Programming & Development : Alexandra Zaïnal
Concept & Development : Baudouin d'Aumeries
Co-Development & Prog : Marc-Olivier Méhu
Technical & hardware support : Manuel Goepfert

Contact : metmap@orbifly.com




SOURCES & CREDITS :

   NOAA